STARLINK-31475, 59310

Orbit data source: Space-Track

STARLINK-31475, 59310 is a payload satellite owned by SpaceX/Seattle (US) in LEO that was launched on Sun, 24 Mar 2024 UTC via an FALCON 9 launch vehicle from the Air Force Eastern Test Range (AFETR). Payload-class satellites include a variety of spacecraft equipped with specific instruments for various scientific and technological missions. These include communications satellites like Starlink; space stations such as the ISS; scientific satellites like the Hubble; Earth observation satellites from companies like Planet Labs, Umbra, and HawkEye 360; GPS; miniature CubeSats for education and research; and military/defense satellites.

Loading next visibility...
Identifier
59310, 2024-056Q
Orbit
LEO
Country
Flag of USUS
Related business
Manufacturer
SpaceX/Seattle
Mission
Operational Commercial Communications
Bus & Motor
STARLINK V2M, Unknown motor
Mass
730 kg wet, ~700 kg dry
Launch date (UTC)
2024-03-24 (2 years ago)
Launch vehicle
FALCON 9
Launch site
Air Force Eastern Test Range (AFETR)
Object type
Payload
Rocket body
Debris
Shape & HBR
Box + 2 Pan, 17.7 m
Radar Cross Section
33.884 m², Large (>1 m²)

Expand to show TLE details & history
Last TLE update: 3 days ago

TLE from 3 days ago
0 STARLINK-31475
1 59310U 24056Q   26170.90216147  .00000138  00000-0  14531-4 0  9991
2 59310  43.0023  10.2468 0001157 272.7843  87.2876 15.27578468126943
Epoch: 2026-06-19T21:39Z
TLE epoch observation values (Epoch: 2026-06-19T21:39:06.751Z)
Latitude
-0.00002°
Longitude
137.34418°
Altitude
482.792 km
Speed
7.626 km/s
True Right ascension
00h 40m 59s
True Declination
0° 00' 00"
Sunlit
Object was in daylight at epoch
Visualization orbit readout
Latitude
Unknown
Longitude
Unknown
Altitude
Unknown
Speed
Unknown
Apparent Right ascension
Unknown
Apparent Declination
Unknown
Sunlit
N/A
Visualization observer readout
Local Sidereal Time
21:29:10
Azimuth
Unknown
Elevation
Unknown
Doppler factor
Unknown
Orbital elements
Apogee altitude
485.793 km
Perigee altitude
484.204 km
Semi-major axis
6,863.135 km
Eccentricity
0.00012
Inclination
43.0023°
RAAN
10.2468°
Arg. of periapsis
272.7843°
True anomaly
87.30084°
Mean anomaly
87.2876°
Eccentric anomaly
87.29422°
Mean motion
3.81733 °/min
Orbital period
94.31 mins
BSTAR
0.000014531
Loading maneuver chart data...
Computing Atmospheric mass density...
Loading historical data...
Loading historical data...
Loading historical data...
Loading historical data...
Loading historical data...
Loading historical data...
Loading historical data...

Documentation

Showing up to 5 results
|